[[{"header":{"parameterUnit":"m.s-1","parameterCategory":1,"la1":30.2991,"la2":30.254,"lo1":-89.0895,"lo2":-89.0444,"dy":0.0017,"dx":0.0017,"nx":28,"ny":28,"refTime":"2025-06-17T21:00:00:Z","depth":0,"parameterNumber":2,"parameterNumberName":"U-component_of_WINDS"},"data":[0,0,0,0,0,0,0,0,0,0,0,0,0,0,0,0,0,0,0,0,0,0,0,0,0,0,0,0,0,0,0,0,0,0,0,0,0,0,0,0,0,0,0,0,0,0,0,0,0,0,0,0,0,0,0,0,0,0,-0.2884,-0.2883,0,-0.2873,-0.2873,-0.2873,-0.2866,-0.2866,-0.2866,-0.2865,-0.2854,-0.2853,-0.2853,0,0,0,0,0,0,0,0,0,0,0,0,0,-0.2895,-0.2895,-0.2884,-0.2883,-0.2883,-0.2873,-0.2873,-0.2873,-0.2866,-0.2866,-0.2866,-0.2865,-0.2854,-0.2853,-0.2853,0,0,0,0,0,0,0,0,0,0,0,0,0,-0.2888,-0.2895,-0.2884,-0.2878,-0.2878,-0.2873,-0.2873,-0.2873,-0.2866,-0.2866,-0.2865,-0.2865,-0.2854,-0.2853,-0.2853,-0.2852,0,0,-0.2852,-0.2852,0,0,0,0,0,0,0,0,-0.2889,-0.2888,-0.2879,-0.2879,-0.2878,-0.2871,-0.2873,-0.2866,-0.2866,-0.287,-0.2865,-0.2865,-0.2859,-0.2858,-0.2857,-0.2852,-0.2851,-0.2852,-0.2851,-0.2851,-0.2851,0,0,0,0,0,0,0,-0.2889,-0.2888,-0.2879,-0.2879,-0.2879,-0.2876,-0.2875,-0.2871,-0.2865,-0.287,-0.2869,-0.2868,-0.2859,-0.2857,-0.2856,-0.2851,-0.2852,-0.2851,-0.2851,-0.2851,-0.2844,-0.2844,0,0,0,0,0,0,-0.2891,-0.2889,-0.288,-0.2879,-0.2883,-0.2876,-0.2875,-0.2873,-0.2865,-0.2864,-0.2868,-0.2868,-0.2858,-0.2857,-0.2856,-0.2854,-0.2851,-0.2851,-0.2851,-0.2843,-0.2844,-0.2844,0,0,0,0,0,0,-0.2891,-0.289,-0.288,-0.2884,-0.2882,-0.2876,-0.2874,-0.2873,-0.2871,-0.2864,-0.2863,-0.2868,-0.2858,-0.2856,-0.2853,-0.2853,-0.2851,-0.285,-0.2843,-0.2844,-0.2844,-0.285,0,0,0,0,0,0,-0.2891,-0.289,-0.289,-0.2884,-0.2882,-0.2878,-0.2874,-0.2873,-0.2871,-0.287,-0.2863,-0.2862,-0.2857,-0.2854,-0.2853,-0.2853,-0.285,-0.2843,-0.2843,-0.2844,-0.285,-0.285,-0.2851,0,0,0,0,0,-0.2892,-0.2892,-0.289,-0.2889,-0.2882,-0.2878,-0.2877,-0.2872,-0.2871,-0.287,-0.2866,-0.2862,-0.2853,-0.2853,-0.2852,-0.2852,-0.2843,-0.2843,-0.2844,-0.285,-0.285,-0.2851,0,0,0,0,0,0,-0.2899,-0.2891,-0.2889,-0.2888,-0.2884,-0.2877,-0.2877,-0.2873,-0.2869,-0.2869,-0.2863,-0.2861,-0.2858,-0.2855,-0.2855,-0.285,-0.2848,-0.2848,-0.2853,-0.2854,-0.2854,-0.2855,-0.285,0,0,0,0,0,-0.29,-0.2898,-0.2891,-0.2891,-0.2889,-0.2883,-0.2881,-0.2878,-0.2873,-0.2871,-0.2867,-0.2862,-0.2858,-0.2855,-0.2851,-0.2849,-0.2847,-0.2848,-0.2849,-0.2849,-0.2849,-0.2847,-0.2848,-0.2844,-0.2844,-0.2844,0,0,-0.2903,-0.2899,-0.2898,-0.2892,-0.2889,-0.2886,-0.2882,-0.2879,-0.2877,-0.2871,-0.2867,-0.2864,-0.2858,-0.2855,-0.2853,-0.2852,-0.285,-0.285,-0.285,-0.285,-0.2847,-0.2848,-0.2848,-0.2844,-0.2844,-0.2844,0,0,-0.2907,-0.2904,-0.2903,-0.2899,-0.2894,-0.289,-0.2889,-0.2883,-0.288,-0.2877,-0.2872,-0.2869,-0.2862,-0.2858,-0.2855,-0.2857,-0.2853,-0.2855,-0.2858,-0.2856,-0.2856,-0.2857,-0.2857,-0.2857,-0.2855,-0.2855,-0.2855,0,-0.2911,-0.2907,-0.2902,-0.29,-0.2897,-0.2892,-0.289,-0.2887,-0.288,-0.2878,-0.2877,-0.2868,-0.2864,-0.286,-0.286,-0.2858,-0.2857,-0.2856,-0.2857,-0.2857,-0.2857,-0.2857,-0.2857,-0.2856,-0.2856,-0.2856,-0.2856,0,-0.2913,-0.291,-0.291,-0.2904,-0.2901,-0.2899,-0.2893,-0.2891,-0.2887,-0.2883,-0.2879,-0.2874,-0.2868,-0.2867,-0.2863,-0.2862,-0.2861,-0.2858,-0.2856,-0.2858,-0.2858,-0.2858,-0.2856,-0.2856,-0.2856,-0.2856,0,0,-0.2922,-0.2912,-0.2912,-0.2909,-0.2903,-0.29,-0.2898,-0.2893,-0.2891,-0.2886,-0.2883,-0.2877,-0.2875,-0.2871,-0.2867,-0.2865,-0.2866,-0.2863,-0.2862,-0.2863,-0.2863,-0.2865,-0.2866,-0.2863,-0.2863,-0.2863,-0.2864,0,-0.2924,-0.292,-0.2915,-0.2912,-0.291,-0.2904,-0.2901,-0.2896,-0.2892,-0.2888,-0.2883,-0.2879,-0.2876,-0.2874,-0.2872,-0.2866,-0.2866,-0.2866,-0.286,-0.286,-0.2862,-0.2866,-0.2868,-0.2869,-0.2864,-0.2864,-0.2864,0,-0.2928,-0.2924,-0.2921,-0.2914,-0.2912,-0.291,-0.2905,-0.2902,-0.2896,-0.2893,-0.2888,-0.2884,-0.288,-0.2877,-0.2871,-0.2872,-0.2869,-0.2865,-0.2865,-0.2865,-0.2862,-0.2865,-0.2869,-0.2869,-0.2863,-0.2863,-0.2863,0,-0.2934,-0.2928,-0.2925,-0.2923,-0.2915,-0.2913,-0.291,-0.2904,-0.2901,-0.2896,-0.2893,-0.2888,-0.2885,-0.288,-0.2873,-0.2872,-0.2868,-0.2865,-0.2865,-0.2865,-0.2864,-0.2865,-0.2868,-0.2862,-0.2862,-0.2862,-0.2862,0,-0.2938,-0.2937,-0.2928,-0.2927,-0.2924,-0.2918,-0.2916,-0.2911,-0.2906,-0.2902,-0.2896,-0.2893,-0.2885,-0.2881,-0.2875,-0.2871,-0.2869,-0.2866,-0.2865,-0.2867,-0.2867,-0.2865,-0.2865,-0.2862,-0.2862,-0.2862,-0.2862,0,-0.2946,-0.294,-0.2937,-0.2929,-0.2927,-0.2926,-0.2919,-0.2916,-0.2911,-0.2907,-0.2906,-0.2898,-0.2892,-0.2885,-0.2877,-0.2874,-0.287,-0.2868,-0.2872,-0.2871,-0.2871,-0.2871,-0.2874,-0.2873,-0.2868,-0.2868,-0.2868,0,-0.2949,-0.2948,-0.294,-0.2938,-0.2934,-0.293,-0.2927,-0.292,-0.2917,-0.291,-0.2908,-0.2902,-0.2897,-0.2888,-0.2881,-0.2875,-0.2873,-0.2874,-0.2872,-0.2873,-0.2872,-0.2873,-0.2872,-0.2874,-0.2875,-0.2875,-0.2875,0,-0.2955,-0.2952,-0.2949,-0.2943,-0.294,-0.2935,-0.293,-0.2929,-0.292,-0.2917,-0.2911,-0.2907,-0.2899,-0.2893,-0.2886,-0.2881,-0.2876,-0.2875,-0.2875,-0.2877,-0.288,-0.2878,-0.2874,-0.2875,-0.2875,-0.2875,-0.2875,-0.2875,-0.2961,-0.2959,-0.2953,-0.2949,-0.2944,-0.294,-0.2937,-0.2931,-0.2927,-0.292,-0.2916,-0.291,-0.2903,-0.2893,-0.2888,-0.2883,-0.2881,-0.2881,-0.288,-0.288,-0.2881,-0.288,-0.2881,-0.2881,-0.2881,-0.2881,-0.2881,0,-0.2967,-0.2962,-0.2958,-0.2952,-0.2948,-0.2944,-0.2938,-0.2935,-0.293,-0.2924,-0.2919,-0.2912,-0.2906,-0.2898,-0.2891,-0.2888,-0.2886,-0.2887,-0.2887,-0.2886,-0.2883,-0.2884,-0.2889,-0.2889,-0.2889,-0.2889,-0.2889,-0.2889,-0.297,-0.2966,-0.2962,-0.2957,-0.2952,-0.2947,-0.2944,-0.2939,-0.2934,-0.2927,-0.2922,-0.2917,-0.2909,-0.2902,-0.2895,-0.2893,-0.2891,-0.2892,-0.2889,-0.2887,-0.2886,-0.2886,-0.2886,-0.2892,-0.2892,-0.2892,-0.2892,-0.2892]},{"header":{"parameterUnit":"m.s-1","parameterCategory":1,"la1":30.2991,"la2":30.254,"lo1":-89.0895,"lo2":-89.0444,"dy":0.0017,"dx":0.0017,"nx":28,"ny":28,"refTime":"2025-06-17T21:00:00:Z","depth":0,"parameterNumber":3,"parameterNumberName":"V-component_of_WINDS"},"data":[0,0,0,0,0,0,0,0,0,0,0,0,0,0,0,0,0,0,0,0,0,0,0,0,0,0,0,0,0,0,0,0,0,0,0,0,0,0,0,0,0,0,0,0,0,0,0,0,0,0,0,0,0,0,0,0,0,0,2.3925,2.3927,0,2.4076,2.4077,2.4079,2.4107,2.4106,2.4105,2.4103,2.4255,2.426,2.4265,0,0,0,0,0,0,0,0,0,0,0,0,0,2.3662,2.3666,2.3925,2.3927,2.3929,2.4075,2.4077,2.4079,2.4107,2.4106,2.4104,2.4103,2.4253,2.4259,2.4265,0,0,0,0,0,0,0,0,0,0,0,0,0,2.379,2.3668,2.3925,2.3961,2.3965,2.4075,2.4077,2.408,2.4108,2.4106,2.4104,2.4102,2.4251,2.4259,2.4266,2.435,0,0,2.429,2.4293,0,0,0,0,0,0,0,0,2.3783,2.38,2.3954,2.3958,2.3964,2.4071,2.404,2.417,2.4108,2.4053,2.4103,2.4101,2.4195,2.4207,2.4239,2.4357,2.4364,2.4291,2.4295,2.4299,2.4301,0,0,0,0,0,0,0,2.3774,2.3794,2.3985,2.3956,2.3962,2.3969,2.3985,2.4065,2.4132,2.4058,2.4061,2.4078,2.4197,2.4232,2.4243,2.4366,2.429,2.4297,2.4302,2.4305,2.4562,2.4564,0,0,0,0,0,0,2.3759,2.3786,2.398,2.3989,2.3867,2.3975,2.3993,2.4038,2.4132,2.4144,2.4079,2.4079,2.4219,2.4234,2.4248,2.4354,2.4299,2.4306,2.431,2.4559,2.4562,2.4564,0,0,0,0,0,0,2.3753,2.3776,2.3974,2.3888,2.3914,2.3981,2.4032,2.4042,2.4076,2.4148,2.416,2.4102,2.4219,2.4238,2.4325,2.4359,2.4309,2.4316,2.4557,2.456,2.4563,2.4564,0,0,0,0,0,0,2.3746,2.3774,2.3806,2.3889,2.3919,2.4048,2.4034,2.4046,2.409,2.4091,2.4172,2.4184,2.4219,2.4313,2.4333,2.4369,2.4322,2.4554,2.4558,2.4562,2.4561,2.4567,2.4572,0,0,0,0,0,2.3736,2.38,2.3808,2.3831,2.3961,2.405,2.4067,2.4106,2.4093,2.4126,2.4172,2.4181,2.4352,2.4322,2.4344,2.4383,2.4552,2.4557,2.4562,2.4559,2.4566,2.4571,0,0,0,0,0,0,2.3718,2.3811,2.3821,2.3914,2.3974,2.4055,2.4098,2.4112,2.4177,2.4174,2.422,2.4238,2.4323,2.4362,2.4327,2.447,2.4451,2.4461,2.4441,2.4449,2.4454,2.4443,2.4329,0,0,0,0,0,2.3725,2.3791,2.3868,2.3942,2.3972,2.403,2.407,2.4095,2.4159,2.4185,2.4237,2.4298,2.4366,2.4409,2.4475,2.4567,2.4585,2.4605,2.461,2.4614,2.4622,2.4674,2.4684,2.458,2.458,2.458,0,0,2.374,2.3799,2.3837,2.394,2.399,2.4056,2.4051,2.4121,2.4171,2.4195,2.4281,2.4322,2.4393,2.4484,2.4526,2.4518,2.4654,2.462,2.4623,2.4629,2.468,2.469,2.4698,2.4584,2.4583,2.4583,0,0,2.3801,2.3852,2.392,2.3971,2.4047,2.4085,2.4101,2.418,2.4209,2.4296,2.4316,2.4376,2.4491,2.4541,2.4582,2.4664,2.4675,2.4684,2.4712,2.4762,2.477,2.4778,2.4808,2.4818,2.4692,2.4692,2.4692,0,2.381,2.3912,2.3953,2.4024,2.4068,2.4095,2.4164,2.421,2.4303,2.4334,2.4324,2.4471,2.452,2.4623,2.4644,2.4675,2.4696,2.4675,2.4766,2.4774,2.4781,2.4811,2.4822,2.4692,2.4692,2.4692,2.4692,0,2.3919,2.3989,2.4035,2.4126,2.4176,2.4245,2.4297,2.4343,2.4364,2.4403,2.4492,2.4553,2.4632,2.4659,2.4679,2.4765,2.4758,2.4757,2.4739,2.4791,2.4819,2.4831,2.4693,2.4693,2.4693,2.4693,0,0,2.3972,2.4086,2.4103,2.4145,2.4231,2.4286,2.4356,2.4435,2.4474,2.4537,2.4598,2.4696,2.4696,2.4742,2.4768,2.4813,2.4875,2.4806,2.4809,2.4817,2.4974,2.4975,2.4987,2.4883,2.4886,2.4887,2.4969,0,2.4044,2.4172,2.4212,2.4319,2.4385,2.4411,2.4473,2.4532,2.4571,2.4632,2.4675,2.4744,2.4738,2.4766,2.4811,2.4858,2.4907,2.4853,2.494,2.4943,2.4922,2.5002,2.5003,2.5077,2.498,2.4982,2.4983,0,2.4145,2.4212,2.4325,2.4405,2.4434,2.4489,2.4565,2.4623,2.4691,2.4717,2.4769,2.4793,2.4867,2.4846,2.495,2.4912,2.495,2.4978,2.4982,2.4992,2.4966,2.5015,2.5101,2.5112,2.5001,2.4999,2.4998,0,2.4173,2.4291,2.4375,2.441,2.4505,2.4543,2.4584,2.465,2.4696,2.4762,2.4792,2.4866,2.4906,2.4963,2.5006,2.4986,2.5107,2.5088,2.513,2.5129,2.5154,2.5152,2.5248,2.5178,2.5178,2.5177,2.5177,0,2.4249,2.4318,2.4389,2.4441,2.4519,2.4564,2.464,2.4682,2.4742,2.4802,2.4829,2.4884,2.4938,2.5,2.5034,2.5116,2.5134,2.5156,2.5165,2.5154,2.5151,2.518,2.5176,2.518,2.518,2.5179,2.5179,0,2.4294,2.4344,2.4438,2.452,2.4543,2.4596,2.4667,2.4718,2.4758,2.4834,2.4854,2.4918,2.4993,2.5042,2.5137,2.516,2.525,2.5256,2.5227,2.5231,2.527,2.5266,2.5389,2.5408,2.5324,2.5325,2.5325,0,2.4339,2.4393,2.4482,2.4525,2.4566,2.4635,2.4682,2.4729,2.4776,2.4859,2.49,2.4978,2.5043,2.5162,2.5216,2.529,2.5299,2.5337,2.531,2.5298,2.53,2.5296,2.5302,2.5341,2.5341,2.5342,2.5342,0,2.4414,2.4437,2.4504,2.4581,2.4637,2.4699,2.4761,2.4794,2.4852,2.4904,2.4983,2.5033,2.5132,2.5208,2.5287,2.5329,2.5346,2.5351,2.5364,2.5354,2.5336,2.5347,2.524,2.5347,2.5347,2.5347,2.5346,2.5346,2.4461,2.4511,2.4582,2.4656,2.4708,2.4766,2.4818,2.4866,2.4933,2.5017,2.5041,2.5123,2.5191,2.5299,2.5343,2.5407,2.5403,2.5422,2.5427,2.5431,2.5432,2.5325,2.5422,2.5422,2.5422,2.5421,2.5421,0,2.4539,2.4586,2.4654,2.4741,2.48,2.4811,2.4881,2.4929,2.5001,2.5064,2.5127,2.5218,2.5293,2.5354,2.5431,2.5471,2.5481,2.549,2.5487,2.5497,2.5432,2.5413,2.5481,2.5481,2.5481,2.5481,2.5481,2.5481,2.4586,2.4671,2.4702,2.4813,2.486,2.4942,2.4981,2.5034,2.5085,2.5185,2.5248,2.5288,2.535,2.5432,2.5502,2.5518,2.5545,2.5553,2.557,2.5508,2.5501,2.5495,2.5477,2.5558,2.5558,2.563,2.5631,2.5631]}]]